星链-4507 (STARLINK-4507 )

导读

STARLINK-4507是美国太空探索技术公司Starlink星链互联网卫星星座的成员,于2022年8月10日在美国发射升空。星链项目旨在通过近地轨道卫星群,为全球提供高速互联网接入服务,这颗卫星承担了扩展星链网络覆盖范围、提升星座服务容量的任务,运行在近地轨道,服务全球互联网络的部署。

基本信息
目录编号:
53403
目录名称:
STARLINK-4507
国际标识:
2022-097R
轨道中心:
EARTH
卫星名称:
星链-4507
卫星全名:
星链-4507 (STARLINK-4507 )
卫星状态:
在轨 (已飞行1407 天)
发射日期:
2022-08-10 UTC
国别 :
美国 (US)
星等 :
--
轨道信息
数据来源 国际轨道数据
星历时间: 2026-06-17T04:54:23+0800
13小时前
查看轨道信息
半长轴: 6917.913km
偏心率: 0.0001279
轨道倾角: 53.161°
近地点辐角 85.984°
升交点赤经 39.130°
平近点角 274.130°
近地点: 538.891km
远地点: 540.661km
周期: 95.438分钟
每日圈数: 15.088294
详细信息
固有亮度:
5
最大亮度:
2.5
卫星平台:
Starlink v1.5
覆盖范围:
全球
运营商:
太空探索技术公司
运营商所在国:
美国
制造商(研发单位):
太空探索技术公司
制造商所在国:
美国
使用方式:
暂无
卫星简介
星链(Starlink)计划是由太空探索技术公司(SpaceX)提出的一个巨型低轨卫星互联网星座项目,计划在2019年至2024年间在太空搭建由约1.2万颗卫星组成的“星链”网络,其中1584颗将部署在地球上空550千米处的近地轨道,并从2020年开始工作。该卫星仍在工作。
2D轨道图
3D轨道图
轨道高度分析图
轨道倾角分析图
轨道综合分析图
查看轨道综合分析图